#timestamp,LO_Frequency,Hit,StdDev 
1659808815.8,286047002.5,N
1659808835.7,286047002.1,N
1659808855.5,286047001.5,N
1659808875.4,286047001.8,N
1659808895.2,286047001.3,N
1659808915.0,286047003.9,N
1659808915.9,286047003.9,N
1659808935.8,286047004.3,N
1659808955.6,286047001.3,N
1659808975.4,286047001.5,N
1659808995.3,286047000.1,N
1659809015.1,286046999.9,N
1659809035.9,286046999.7,N
1659809055.7,286047002.4,N
1659809075.5,286047000.0,N
1659809095.4,286047000.5,N
1659809115.2,286047000.4,N
1659809135.0,286047000.4,N
1659809135.9,286047000.4,N
1659809155.8,286047000.4,N
1659809175.6,286047000.7,N
1659809195.5,286047000.8,N
1659809215.3,286047000.6,N
1659809235.1,286046998.1,N
1659809255.9,286047001.0,N
1659809275.7,286046998.2,N
1659809295.6,286047008.6,Y
1659809315.4,286047013.6,P
1659809335.2,286047011.0,N
1659809355.1,286047009.6,N
1659809356.0,286047009.6,N
1659809375.8,286047010.6,N
1659809395.6,286047011.0,N
1659809415.5,286047013.6,Y
1659809435.3,286047002.6,P
1659809455.2,286047000.9,N
1659809475.9,286046998.1,N
1659809495.7,286046996.8,N
1659809515.6,286046997.8,N
1659809535.4,286046995.1,N
1659809555.2,286046995.0,N
1659809575.1,286046996.0,N
1659809576.0,286046996.0,N
1659809595.8,286046996.0,N
1659809615.7,286046993.9,N
1659809635.5,286046993.7,N
1659809655.3,286046994.6,N
1659809675.2,286046992.3,N
1659809695.0,286046992.5,N
1659809695.9,286046992.5,N
1659809715.7,286046992.3,N
1659809735.6,286046990.1,N
1659809755.4,286046992.6,N
1659809805.3,286046992.4,E
1659809815.2,286046995.8,N
1659809835.1,286046998.3,P
1659809836.0,286046998.3,N
1659809855.8,286046998.4,N
1659809875.6,286046999.4,N
1659809895.5,286046999.0,N
1659809915.3,286046996.9,N
1659809935.1,286046996.5,Y
1659809955.9,286046998.6,P
1659809975.7,286047000.8,N
1659809995.6,286046998.4,N
1659810015.4,286046999.4,N
1659810035.2,286046999.6,N
1659810055.1,286046998.7,N
1659810056.0,286046998.7,N
1659810075.8,286046996.9,Y
1659810095.7,286046999.3,P
1659810115.5,286046999.0,P
1659810135.3,286046998.9,P
1659810155.2,286046998.7,Y
1659810175.0,286046999.1,P
1659810175.9,286046999.1,P
1659810195.7,286046998.9,P
1659810215.6,286046999.6,Y
1659810235.4,286046998.6,P
1659810255.3,286047000.8,P
1659810275.1,286046998.4,N
1659810295.8,286046998.1,N
1659810315.7,286047001.2,N
1659810335.5,286046998.8,N
1659810355.3,286047000.9,N
1659810375.2,286047001.1,N
1659810395.0,286047000.9,N
1659810395.9,286047000.9,N
1659810415.8,286046998.4,N
1659810435.6,286047000.4,N
1659810455.4,286047000.5,N
1659810475.3,286046998.3,N
1659810495.1,286046998.5,N
1659810515.9,286047001.1,N
1659810535.7,286047001.0,N
1659810555.5,286047000.1,N
1659810575.4,286047000.4,N
1659810595.2,286047000.2,N
1659810615.0,286047000.1,N
1659810615.9,286047000.1,N
1659810635.8,286047000.1,N
1659810655.6,286047002.4,N
1659810675.5,286046998.6,N
1659810695.3,286047001.1,N
1659810715.1,286047000.7,N
1659810735.9,286046998.5,N
1659810755.7,286047000.6,N
1659810775.5,286046998.1,N
1659810795.4,286046999.4,N
1659810815.2,286046999.1,N
1659810865.1,286046999.2,E
1659810875.9,286046998.6,N
1659810895.7,286046998.3,P
1659810915.6,286046998.7,P
1659810935.4,286047001.1,Y
1659810955.2,286047002.4,P
1659810975.1,286047002.2,N
1659810976.0,286047002.2,N
1659810995.8,286047002.4,N
1659811015.7,286047000.3,N
1659811035.5,286046999.9,N
1659811055.3,286047000.3,N
1659811075.2,286047000.9,N
1659811095.0,286046998.1,N
1659811095.9,286046998.1,N
1659811115.8,286047001.1,N
1659811135.6,286047000.9,N
1659811155.4,286046999.7,N
1659811175.3,286047002.3,N
1659811195.1,286047001.6,N
1659811215.8,286046999.9,N
1659811235.7,286047002.8,N
1659811255.5,286047000.7,N
1659811275.4,286047000.6,N
1659811295.2,286047000.2,N
1659811315.0,286047002.8,N
1659811315.9,286047002.8,N
1659811335.8,286046999.9,N
1659811355.6,286047000.8,N
1659811375.4,286047000.3,N
1659811395.3,286047002.7,N
1659811415.1,286047002.8,N
1659811435.9,286047002.3,N
1659811455.7,286046999.7,N
1659811475.5,286046999.7,N
1659811495.4,286047000.2,N
1659811515.2,286047000.4,N
1659811535.0,286047000.3,N
1659811535.9,286047000.3,N
1659811555.8,286046999.7,N
1659811575.6,286046999.9,N
1659811595.5,286047002.4,N
1659811615.3,286047001.5,N
1659811635.1,286047000.1,N
1659811655.9,286047002.2,N
1659811675.7,286047000.1,N
1659811695.5,286047002.7,N
1659811715.4,286047000.6,N
1659811735.2,286047001.0,N
1659811755.1,286047000.4,N
1659811756.0,286047000.4,N
1659811775.8,286047000.6,N
1659811795.6,286047000.4,N
1659811815.5,286046998.4,N
1659811835.3,286046998.7,N
1659811855.2,286046998.9,N
1659811875.9,286046999.0,N
1659811895.7,286046998.8,N
1659811915.6,286046999.3,N
1659811935.4,286046998.1,N
1659811955.2,286047001.0,N
1659811975.1,286047000.7,N
1659811976.0,286047000.7,N
1659811995.8,286046998.6,N
1659812015.7,286047000.3,N
1659812035.5,286046998.5,N
1659812055.3,286047001.0,N
1659812075.2,286047000.7,N
1659812095.0,286047001.2,N
1659812095.9,286047001.2,N
1659812115.7,286047000.4,N
1659812135.6,286046999.7,N
1659812155.4,286047002.4,N
1659812175.3,286047000.0,N
1659812195.1,286047000.2,N
1659812196.0,286047000.2,N
1659812215.8,286047000.2,N
1659812235.7,286047000.6,N
1659812255.5,286047002.8,N
1659812275.3,286046999.7,N
1659812295.2,286047000.2,N
1659812315.0,286047002.8,N
1659812315.9,286047002.8,N
1659812335.8,286047002.7,N
1659812355.6,286047001.6,N
1659812375.4,286047001.9,N
1659812395.3,286047002.2,N
